Temp
10 10 10 10 10 9 9 10 10 10 10 10 10 10 10 9 10 11 11 10 11 11 11 11 12 12 12 12 12 13 13 13 13 13 13 13 14 14 14 14 14 14
9 9 9 9 9 9 9 9 9 9 9 9 9 9 9 9 9 10 10 10 10 11 11 11 11 11 11 12 12 12 12 12 12 12 12 13 12 12 12 13 13 14
9 9 9 9 8 8 8 9 8 8 8 8 8 8 8 8 8 9 9 9 9 9 10 10 10 11 10 10 10 9 9 9 9 10 10 11 11 10 11 11 12 12
8 8 8 8 8 9 9 9 9 8 7 7 7 7 8 8 8 7 7 8 7 8 8 9 9 9 9 8 8 7 7 7 8 8 8 9 9 9 10 10 10 11
8 8 8 8 8 9 8 8 8 7 7 6 6 7 7 7 7 7 6 6 6 6 6 7 7 6 6 6 6 6 6 6 7 7 7 7 8 8 9 9 9 10
7 7 7 7 7 8 8 7 7 8 7 7 6 6 6 6 6 6 6 5 5 5 5 5 5 5 5 5 5 5 6 6 6 6 7 7 7 8 8 8 8 9
7 7 7 7 7 7 7 7 8 8 8 8 7 5 5 6 6 5 5 5 5 5 5 5 5 5 5 5 5 5 5 6 6 6 6 6 7 7 7 7 8 8
7 6 7 7 7 7 7 7 8 8 8 8 7 5 5 5 5 5 5 4 5 5 5 5 5 5 5 4 4 5 5 6 6 6 6 6 6 7 7 7 7 8
6 6 7 7 7 7 7 7 7 7 7 8 6 4 5 5 5 5 5 5 5 5 5 5 5 5 4 4 4 4 4 5 5 5 6 6 6 6 7 7 7 7
6 6 6 6 6 6 7 7 7 6 7 7 6 5 5 5 5 5 5 5 5 5 5 5 5 5 4 4 4 4 4 4 5 5 5 6 6 6 7 7 7 7
6 6 6 6 6 6 6 6 7 6 6 6 6 5 4 4 5 5 5 5 5 5 5 5 5 4 4 4 3 4 4 4 5 5 5 6 6 6 6 6 7 7
6 6 6 6 6 6 6 6 6 6 5 5 5 5 4 4 4 4 5 5 5 5 5 4 4 4 4 4 3 3 4 4 5 5 6 6 6 6 6 6 6 6
6 6 6 6 5 6 6 6 6 6 5 5 5 5 4 4 4 4 4 5 4 4 4 4 4 3 4 4 3 3 4 4 5 5 6 6 6 6 6 5 5 5
6 6 6 6 5 6 6 6 6 6 5 5 5 5 5 4 4 4 4 4 4 4 4 4 3 3 4 4 4 4 4 4 5 5 5 5 5 6 6 5 5 5
6 6 6 6 6 6 6 6 6 6 5 5 5 5 5 4 3 4 4 4 4 4 4 3 3 3 4 4 4 4 4 4 5 5 5 5 5 5 5 5 5 4
6 6 6 6 6 5 5 5 6 6 5 5 5 5 5 4 4 4 3 4 4 4 4 3 3 4 5 5 5 5 4 4 4 5 5 5 5 5 5 4 4 4
6 6 6 5 5 5 5 5 5 5 5 5 5 5 5 4 4 4 3 3 3 3 3 3 3 4 5 5 5 5 4 3 4 4 4 4 4 4 4 4 4 4
5 5 5 5 5 5 5 5 5 5 5 5 5 5 5 5 4 4 4 3 3 3 3 3 3 4 5 5 5 5 4 3 4 4 4 4 4 4 4 4 3 3
5 5 5 5 5 5 5 5 5 5 5 5 5 5 5 5 5 5 4 3 3 3 3 3 3 4 5 5 5 5 4 3 4 4 4 4 4 3 3 3 3 3
5 5 5 5 5 5 5 5 5 5 5 5 5 5 5 4 4 4 4 3 3 3 3 3 2 4 4 5 5 5 3 3 3 3 4 4 3 3 3 3 3 2
5 4 4 4 5 5 5 5 5 5 5 4 4 4 4 4 4 4 3 3 3 3 3 3 2 3 4 4 5 4 3 3 3 3 3 3 3 3 3 3 2 2
4 4 4 4 5 5 5 5 5 4 4 4 4 4 4 3 3 3 3 3 3 3 3 3 3 3 4 4 5 4 3 3 3 3 3 3 3 3 3 3 2 2
4 4 4 4 4 4 4 4 4 4 4 4 4 4 3 3 3 3 2 2 3 2 3 3 3 3 3 4 4 4 3 3 3 3 3 3 3 3 3 2 2 2
4 4 4 4 4 4 4 4 4 4 4 4 4 3 3 3 3 3 3 2 3 3 3 3 2 3 3 3 4 4 3 3 3 3 3 3 3 3 3 2 2 2
4 4 4 4 4 4 4 4 4 4 4 4 3 3 3 3 3 3 3 3 3 3 3 3 2 2 3 3 3 4 3 2 3 3 2 3 3 3 3 2 2 2
4 4 4 4 4 4 4 4 4 4 3 3 3 3 3 3 3 3 3 3 3 3 3 3 3 2 2 3 3 3 3 2 2 2 2 3 3 3 3 3 2 2
Height
836 836 836 837 837 837 837 837 837 837 837 837 837 836 835 835 834 833 833 832 830 829 828 827 826 825 824 822 821 820 819 818 816 815 814 812 811 810 809 807 805 804
836 837 837 837 837 837 837 837 837 837 837 837 837 836 836 835 834 833 832 831 830 828 827 826 825 824 823 821 820 819 818 817 815 814 812 811 809 808 807 805 804 802
837 837 837 837 837 837 837 837 837 837 837 837 837 836 836 835 834 833 832 831 830 829 827 826 825 823 822 821 820 818 817 816 814 812 811 809 808 806 805 804 802 801
838 838 838 837 837 837 837 837 837 837 837 837 837 836 836 835 834 833 832 831 830 829 827 826 825 823 822 821 819 818 816 815 813 811 809 808 807 805 803 802 800 799
838 838 838 838 837 837 837 837 837 837 837 837 837 836 836 835 834 833 832 831 830 829 828 826 825 824 823 821 820 818 816 815 813 811 809 807 806 804 802 801 799 797
839 839 839 838 838 838 838 838 838 838 837 837 836 837 836 835 835 834 833 832 831 830 829 828 827 825 824 822 820 819 817 815 813 811 809 807 806 804 802 801 799 797
840 840 840 840 839 839 839 839 839 838 837 837 837 837 837 836 835 834 834 833 832 831 830 829 828 826 825 823 821 819 817 815 813 811 809 808 806 804 802 800 798 796
842 842 841 841 840 840 840 839 839 839 838 838 837 838 838 837 836 835 834 834 833 832 832 831 829 828 825 823 821 819 817 815 813 811 809 808 806 804 802 800 798 796
843 843 842 841 840 840 840 840 840 840 840 839 838 838 838 837 837 836 836 835 834 834 833 832 831 829 827 824 822 820 818 816 814 812 810 808 806 804 802 800 798 796
844 843 843 842 842 842 842 842 842 841 841 840 840 839 839 839 838 838 837 836 836 835 835 834 832 830 828 825 823 820 818 816 814 812 810 808 807 805 802 800 798 796
844 844 844 843 843 843 843 843 843 843 842 842 841 840 840 840 840 839 839 838 838 837 837 835 834 832 829 826 823 821 819 817 815 813 811 809 807 805 803 801 798 796
845 845 845 844 844 844 845 845 844 844 844 843 842 841 841 841 841 841 841 840 840 839 838 837 835 832 830 827 824 822 820 818 816 814 812 810 808 805 803 801 798 796
847 847 846 846 846 846 846 846 846 846 845 845 844 843 842 842 842 842 842 842 841 840 839 838 835 833 830 827 825 822 821 819 817 815 813 810 808 806 804 801 798 796
849 848 848 848 848 848 848 848 848 848 847 846 846 845 844 844 844 844 844 843 842 841 840 838 836 833 830 828 825 823 821 820 818 816 814 811 809 807 804 802 799 796
850 850 850 850 850 850 850 850 850 849 849 848 847 847 846 846 846 845 845 844 843 842 840 838 836 834 832 830 827 824 822 821 819 817 815 813 810 807 805 802 799 796
852 852 852 852 852 852 852 852 851 851 850 850 849 849 848 847 847 846 846 845 844 842 841 839 837 836 834 832 829 825 823 822 820 819 817 814 811 808 805 802 799 797
853 853 854 854 854 854 853 853 853 852 852 852 851 851 850 849 848 847 846 845 844 843 842 841 839 838 835 833 830 827 824 823 822 820 817 815 812 809 806 803 799 796
854 855 856 856 856 855 855 854 854 854 854 854 853 853 852 851 849 848 847 846 846 845 844 843 841 839 836 834 831 828 825 824 823 820 818 816 813 811 808 804 801 797
856 856 857 857 857 856 856 855 855 855 855 855 855 854 853 852 851 849 848 848 847 846 846 845 843 840 838 835 832 829 826 825 824 821 819 817 814 812 809 805 802 798
857 858 858 858 858 857 857 857 857 857 857 857 856 856 854 853 852 851 850 850 850 848 848 847 845 842 839 836 833 830 827 826 825 822 820 818 815 812 809 806 804 800
859 859 859 859 858 858 858 858 858 858 858 858 858 857 856 855 854 853 853 852 852 850 850 849 846 843 840 837 834 830 827 827 825 823 820 818 816 813 811 808 805 802
860 860 860 860 859 859 859 859 859 860 860 860 860 859 858 857 857 856 855 855 853 852 851 850 848 844 841 838 835 831 828 828 826 824 821 819 817 814 812 809 807 803
862 861 861 861 861 860 860 861 861 861 862 861 861 861 860 860 859 858 858 857 855 853 852 851 849 846 843 840 836 832 830 830 828 825 823 821 819 816 814 811 808 805
863 863 862 862 862 862 862 862 863 863 863 863 862 862 862 862 861 860 859 858 856 854 853 852 850 848 844 841 838 834 833 832 830 827 825 823 820 818 815 812 809 807
864 864 864 863 863 863 864 864 865 865 865 864 864 864 864 863 863 862 861 859 858 856 854 852 851 849 846 843 841 837 835 834 832 829 827 824 822 819 816 813 811 807
865 865 865 865 865 865 866 866 866 866 866 866 865 866 865 865 864 863 862 861 859 857 856 854 853 851 849 846 843 840 837 835 833 830 828 826 824 821 818 815 812 809
Wind_Speed
10 8 8 8 7 7 7 7 6 6 6 6 6 6 6 7 9 11 11 11 12 12 13 14 15 16 16 16 17 17 18 19 18 18 18 17 17 17 17 18 18 19
10 9 9 9 8 8 7 7 7 7 7 6 6 6 6 6 8 10 11 11 11 12 13 15 16 17 17 18 18 17 18 19 19 20 20 19 18 17 16 17 17 18
11 11 10 10 10 9 8 8 8 7 7 7 6 6 6 6 7 9 9 9 10 11 13 14 15 15 16 17 16 15 15 16 16 18 20 20 18 17 17 16 16 17
12 12 12 12 12 12 12 11 11 9 7 7 8 7 7 7 8 9 10 10 11 12 13 14 14 15 15 15 14 13 14 14 15 16 18 17 17 17 18 17 17 18
13 14 14 15 16 17 17 17 17 15 11 9 9 8 9 9 9 10 11 11 12 13 14 14 14 15 15 15 14 14 15 15 16 18 18 16 16 16 16 17 18 19
15 16 17 18 20 21 21 21 20 20 18 15 12 11 11 11 11 12 12 12 13 14 14 15 16 16 15 15 15 15 15 16 18 18 17 17 18 18 16 16 17 18
18 18 19 20 21 22 22 22 22 23 22 20 17 13 12 13 13 13 13 13 14 15 16 17 18 17 16 15 15 16 16 17 18 18 17 17 17 18 18 17 17 17
18 18 20 21 22 23 22 22 23 23 22 22 19 14 12 14 14 13 14 15 15 17 18 19 19 18 17 16 16 16 16 17 18 17 17 17 17 18 18 17 17 17
17 18 20 21 23 23 23 23 23 23 23 23 21 17 13 13 14 15 15 16 17 18 19 19 19 19 19 17 16 16 16 16 17 16 16 16 16 17 17 17 18 18
17 19 21 22 23 23 23 23 23 23 24 24 23 19 16 15 15 16 16 17 17 19 20 20 20 20 20 18 17 15 15 16 16 15 15 15 16 17 17 18 19 19
18 19 21 22 22 23 23 23 24 24 24 25 25 22 18 16 16 17 17 18 18 19 20 20 20 20 20 19 18 16 15 15 15 15 15 15 16 17 17 18 18 19
18 19 20 21 22 22 23 23 24 24 23 24 25 23 19 17 17 18 18 19 18 18 19 20 20 20 20 20 19 17 16 15 15 15 16 16 17 17 17 18 18 18
17 18 19 20 21 22 23 24 24 24 23 23 24 24 22 19 18 18 18 18 18 19 19 19 20 20 22 23 20 18 17 16 16 17 18 17 17 18 18 18 18 18
16 17 18 20 21 22 23 24 24 24 24 24 25 26 26 22 18 17 17 17 18 19 19 20 23 24 26 27 24 19 17 16 17 18 19 19 19 19 19 19 19 19
16 17 18 19 20 22 23 24 25 26 26 26 27 27 27 24 19 17 17 17 18 18 19 22 26 29 30 30 28 23 17 15 16 17 19 19 20 21 20 20 21 20
16 17 17 18 20 22 23 24 25 26 26 27 27 27 27 27 23 20 18 17 18 18 19 22 26 31 32 31 30 26 18 14 16 17 18 19 20 21 22 22 22 22
16 16 16 18 19 21 22 23 24 25 26 26 26 27 27 27 26 24 21 19 19 19 20 21 25 32 34 32 31 28 20 15 15 16 17 18 20 21 22 23 24 24
15 15 16 17 18 20 22 23 23 24 25 25 25 26 27 27 27 26 24 21 19 19 20 20 25 31 33 32 32 29 22 16 15 16 17 18 20 20 21 23 24 25
15 15 16 17 18 20 21 22 23 24 24 25 25 26 27 28 28 29 26 21 18 19 19 19 24 31 33 33 33 30 25 19 16 16 17 18 19 19 20 22 23 25
15 16 16 17 18 20 21 22 22 23 24 24 25 26 27 28 28 29 26 21 18 19 18 19 25 31 32 33 34 31 26 20 18 17 17 18 18 19 20 21 23 25
15 16 17 17 18 19 20 21 21 22 23 23 24 25 26 26 27 28 25 19 18 19 18 19 25 30 32 32 34 32 25 21 20 19 18 19 18 19 20 21 22 24
16 17 18 18 18 19 20 21 21 22 22 22 23 23 24 25 25 26 23 19 19 20 18 19 24 29 31 31 34 32 25 21 22 20 19 20 20 21 21 20 22 24
17 18 19 19 19 19 20 21 21 21 21 21 22 22 23 22 21 22 22 19 20 21 20 19 23 29 30 30 33 31 24 21 22 20 20 21 21 22 21 21 22 24
18 19 20 20 20 20 20 20 20 20 20 21 21 20 20 19 17 19 21 21 23 25 25 21 21 27 30 29 31 31 24 20 21 19 19 21 22 22 21 21 22 23
21 21 21 21 21 21 20 20 19 20 20 21 20 18 17 17 17 18 20 23 25 28 30 28 24 26 29 29 29 30 24 19 19 19 19 21 22 23 22 23 23 23
23 23 23 22 22 21 21 21 20 20 20 21 19 17 17 18 18 19 19 22 26 27 29 32 29 28 29 29 29 29 26 21 18 18 19 21 22 23 23 25 26 24
Wind_Direction
78 76 75 73 69 64 59 57 52 47 40 29 25 22 15 16 17 11 7 4 1 2 4 3 359 355 351 347 346 345 341 339 337 334 332 329 327 324 317 312 309 305
76 73 73 71 67 63 57 55 52 47 45 39 33 31 24 21 22 17 12 8 5 3 2 359 354 350 346 342 341 338 334 331 329 328 330 331 330 328 323 318 314 308
74 70 70 67 64 63 61 60 57 49 45 42 36 32 28 23 22 21 19 17 11 3 1 2 359 355 352 348 345 342 339 336 333 332 331 331 330 329 327 325 321 317
72 69 70 70 71 73 72 70 65 56 46 42 39 34 33 29 26 27 26 25 23 19 18 18 15 12 7 2 358 357 354 351 349 347 343 338 332 329 328 328 325 323
71 71 74 77 77 76 73 69 65 60 52 45 41 38 37 35 34 34 32 31 29 25 23 21 17 13 9 5 4 2 360 359 358 356 354 350 345 340 334 331 328 324
77 77 79 79 77 73 70 65 61 59 55 49 45 42 40 39 40 39 36 35 32 27 23 20 15 10 7 5 4 2 1 360 359 358 356 353 352 352 346 339 334 329
80 79 78 76 73 70 66 62 58 56 53 49 47 44 41 42 42 40 38 35 32 28 24 19 14 9 6 4 2 2 3 1 359 357 355 352 351 352 351 345 340 335
77 75 74 71 69 66 62 59 56 53 50 48 47 44 42 44 43 40 38 36 33 29 24 19 14 9 6 4 2 1 1 1 360 356 353 351 348 348 347 344 340 334
73 71 70 68 65 62 59 58 55 52 49 48 48 47 44 44 43 41 39 37 35 30 24 20 15 11 7 4 2 359 357 358 358 356 353 350 346 344 343 340 337 332
71 68 66 65 64 61 59 59 57 55 52 51 51 49 48 45 43 41 39 37 34 30 25 21 17 14 9 6 2 358 354 354 355 354 352 348 345 342 341 340 337 333
70 67 65 64 64 62 60 60 60 58 55 54 54 52 51 48 44 42 40 38 35 30 26 23 19 15 10 6 3 360 356 353 352 352 350 347 346 344 343 343 340 336
68 66 65 64 64 63 62 62 62 60 57 56 56 55 53 49 46 45 42 39 37 31 28 24 19 15 11 7 3 1 359 357 355 354 351 348 347 346 345 344 341 340
69 67 66 65 65 66 66 66 65 63 61 59 58 57 56 52 48 46 43 40 37 32 29 26 20 16 13 10 6 2 0 0 360 358 355 352 351 348 346 345 343 341
74 71 69 69 70 71 71 70 69 67 65 63 62 61 59 56 50 46 46 42 39 37 33 28 25 22 17 13 9 5 2 2 2 1 357 355 353 351 349 348 346 343
79 75 73 74 76 75 74 74 72 71 69 67 66 65 62 59 54 49 47 43 40 39 34 30 27 24 21 18 13 9 5 2 2 2 0 357 354 352 351 350 349 346
84 80 78 79 80 79 77 76 74 73 71 69 67 66 63 60 57 52 48 43 40 37 33 30 27 24 24 23 19 16 11 4 3 4 3 1 357 353 351 350 349 348
88 84 84 84 84 82 79 77 75 73 71 69 67 64 62 59 56 53 49 43 39 36 33 29 24 23 24 24 22 22 20 10 5 5 4 2 360 356 352 350 349 348
92 89 89 90 88 84 81 78 76 74 71 68 66 63 61 59 55 53 49 43 38 36 35 29 23 22 23 23 22 24 27 20 8 7 6 2 1 358 354 353 350 348
96 94 94 94 91 87 83 79 76 74 71 68 66 63 61 58 55 53 50 43 36 36 35 28 22 21 22 22 21 24 30 27 13 8 8 4 2 0 356 355 353 350
98 98 97 96 93 89 84 80 76 74 71 68 65 62 60 57 54 52 49 42 35 36 35 28 22 21 22 21 21 24 29 26 15 11 10 6 4 1 359 358 356 354
100 100 99 96 94 90 84 80 78 75 72 69 65 63 60 56 53 51 47 41 35 35 35 29 23 22 23 21 20 24 28 23 16 14 11 8 5 2 1 359 358 357
100 100 98 94 93 89 85 82 79 76 74 71 67 65 61 57 53 50 46 41 36 35 35 30 25 24 25 22 20 23 25 21 17 15 11 9 6 4 3 1 1 0
99 98 96 93 91 88 84 83 81 78 77 74 69 66 62 58 52 49 47 44 39 38 37 32 27 26 26 23 21 23 24 19 17 15 13 11 9 7 5 3 3 4
99 97 95 92 90 87 85 85 83 80 78 76 72 68 62 58 53 49 50 48 45 44 41 36 28 26 27 25 22 25 26 20 15 14 13 12 10 9 8 5 4 4
98 97 94 90 89 89 89 88 85 83 81 78 74 69 62 59 56 53 52 50 48 46 43 40 34 28 28 28 26 27 29 22 16 16 15 14 11 10 8 8 6 5
96 95 93 91 91 91 91 90 87 86 85 80 74 70 65 63 60 56 54 51 49 47 44 42 39 33 31 33 33 33 34 29 20 19 17 15 14 13 11 9 9 7